Starlink 11701

operational
NORAD ID: 63760 Int'l Des: 2025-089 Owner: SPXS Country: US Constellation: starlink
LEOCIRCULAR

Starlink 11701について

説明を読み込み中...

リアルタイム位置

3D地球を読み込み中...

次回通過

高度履歴

Altitude vs Time

uPlot chart will show altitude changes over time

軌道要素

1 63760U 25089K 25259.37111587 .00184355 00000-0 14057-2 0 9997
2 63760 42.9983 262.6266 0002869 273.9316 86.1224 15.70887415 22727
Epoch: Sep 16, 2025 • Age: 42 hours

現在のステータス

高度 354.8 km
速度 7.70 km/s
衛星直下点 16.33°N, 15.24°E
打ち上げ日 Apr 29, 2025
運用期間 0.3 years
タイプ internet

技術仕様

分類 Payload
質量 960.00 kg
乾燥質量 910.00 kg
総質量 960.00 kg
長さ 0.30 m
直径 4.10 m
スパン 29.00 m
形状 Box + pan
製造者 SPXS
バスタイプ Starlink V2MD
フェーズステータス In Orbit
所有者/国 SPXS/US

大規模コンステレーション

Loading constellations...